SCP
0 0 0 0 0 0 0 0 0 0 0 1 1 1 2 2 3 3 3 2 1 1 1 1 1 2 2 2 1 1 1 1 1 1 1 1 1 1 0 0 0 0 1 1
0 0 0 0 0 0 0 0 0 0 0 1 1 1 1 2 2 2 2 2 1 1 1 1 2 2 2 2 1 1 1 1 1 1 1 1 1 1 0 0 0 0 1 1
0 0 0 0 0 0 0 0 0 0 0 1 1 1 1 1 1 2 2 2 1 1 1 1 2 2 2 2 1 1 1 1 1 1 1 1 1 1 1 0 0 0 0 1
0 0 0 0 0 0 0 0 0 0 0 0 1 1 1 1 1 1 1 1 1 1 1 1 2 2 2 2 1 1 1 1 1 0 1 1 1 1 1 1 0 0 0 1
0 0 0 0 0 0 0 0 0 0 0 0 0 0 0 0 0 1 1 1 1 1 1 1 1 1 1 1 1 1 1 1 1 1 1 1 1 1 1 1 1 0 0 0
0 0 0 0 0 0 0 0 0 0 0 0 0 0 0 0 0 0 1 1 1 1 1 1 1 1 1 1 1 1 1 1 1 1 1 1 1 1 1 1 1 1 1 1
0 0 0 0 0 0 0 0 0 0 0 0 0 0 0 0 0 0 1 1 1 1 1 1 1 1 1 1 1 1 1 1 1 1 1 1 1 1 1 1 1 1 1 1
0 0 0 0 0 0 0 0 0 0 0 0 0 0 0 0 0 0 1 1 1 1 1 1 1 1 1 2 2 2 2 1 1 1 1 1 1 1 1 1 1 1 1 1
0 0 0 0 0 0 0 0 0 0 0 0 0 0 0 0 0 1 1 1 1 1 1 1 1 1 1 1 2 2 2 2 2 2 2 1 1 1 1 1 1 1 1 1
0 0 0 0 0 0 0 0 0 0 0 0 0 0 0 0 1 1 1 1 1 1 1 1 1 1 1 1 2 3 3 3 3 3 3 2 2 1 1 1 1 1 1 1
0 0 0 0 0 0 0 0 0 0 0 0 0 0 0 1 1 1 1 1 1 1 1 1 1 1 1 2 2 3 3 3 4 4 4 3 3 2 2 1 1 1 1 1
0 0 0 0 0 0 0 0 0 0 0 0 0 0 0 1 1 1 1 1 1 1 1 1 1 1 1 2 2 3 3 4 5 6 6 5 4 3 2 2 1 1 1 1
0 0 0 0 0 0 0 0 0 0 0 0 0 0 1 1 1 1 1 1 1 2 2 2 1 1 1 2 2 4 4 5 7 8 8 7 5 4 2 2 1 1 1 2
0 0 0 0 0 1 1 0 0 0 0 0 0 1 1 1 1 1 1 1 2 2 2 1 1 1 2 2 3 4 5 6 7 9 8 6 4 3 3 2 2 2 2 2
0 0 0 1 1 1 1 1 0 0 0 0 1 1 1 1 1 1 1 1 2 2 1 1 1 2 2 2 2 3 4 4 5 6 5 5 4 4 4 3 3 3 3 3
0 0 1 1 1 1 1 1 1 1 1 1 1 1 1 2 2 2 2 1 1 1 2 2 2 2 2 2 2 2 3 4 4 5 5 5 6 7 6 5 4 4 4 4
0 0 1 1 1 1 1 1 1 2 2 2 2 2 3 3 3 3 2 2 2 2 2 2 2 2 2 2 2 2 3 5 6 7 7 8 9 9 8 6 4 4 5 6
0 0 1 1 1 1 1 1 2 3 4 4 3 3 4 4 5 4 4 3 3 4 4 3 3 3 3 3 3 3 4 6 7 9 10 10 10 9 8 6 4 3 4 5
0 0 0 1 1 1 1 2 3 4 4 4 4 4 4 4 4 5 5 4 4 4 4 4 3 3 4 3 3 4 6 7 9 10 10 9 9 8 8 6 4 3 3 4
0 0 1 1 1 1 2 3 3 4 4 4 4 5 5 4 4 5 5 4 4 5 5 5 4 5 5 4 4 5 7 8 9 9 8 7 6 8 8 7 5 3 3 3
0 1 1 1 1 1 2 3 3 3 4 6 7 7 8 7 7 7 7 5 4 4 5 5 5 6 6 5 5 6 7 7 6 6 5 4 5 6 6 5 5 4 4 4
1 1 1 1 1 1 2 2 3 3 6 10 12 12 11 10 9 9 8 6 5 4 5 5 5 6 5 5 6 7 6 5 4 4 4 4 4 4 4 4 4 4 4 4
0 0 1 1 1 1 1 2 2 5 10 15 16 14 12 10 9 8 7 7 6 5 5 5 5 4 4 5 7 8 6 4 3 3 3 4 4 4 4 4 4 4 4 4
0 0 1 1 1 1 1 1 2 5 9 13 13 11 9 7 6 5 5 5 5 5 5 5 5 5 4 5 7 7 6 4 3 3 3 4 5 5 4 4 4 4 4 5
0 0 1 1 1 1 1 1 1 2 4 5 5 5 5 4 4 3 3 3 3 3 3 4 4 4 4 5 5 5 5 5 4 4 4 5 5 5 5 4 4 4 5 6
0 0 1 1 1 1 1 1 1 1 1 1 1 2 3 3 3 3 3 3 2 2 2 2 3 3 3 4 4 5 5 5 5 5 5 5 5 5 5 5 4 4 6 7
Wind_Speed
3 5 1 5 6 5 5 5 3 2 3 5 3 3 4 7 7 7 7 7 7 7 5 4 4 5 4 4 4 3 3 3 3 2 2 1 0 0 0 0 0 1 2 2
5 1 4 3 3 4 4 4 2 0 2 4 2 2 2 6 9 9 10 9 9 7 5 5 5 5 5 5 4 4 4 3 3 2 2 2 1 1 0 0 1 0 1 2
4 5 3 3 3 3 2 4 4 4 3 3 3 3 1 2 3 4 6 7 8 9 9 7 6 6 5 5 6 5 4 4 3 3 2 2 2 1 1 1 1 0 1 2
3 3 2 2 2 3 2 3 5 5 5 1 2 2 5 3 3 5 7 8 9 9 8 7 7 7 7 6 5 5 4 4 3 3 3 3 2 2 1 1 0 0 0 1
4 3 3 3 4 5 3 3 5 5 5 3 2 1 7 1 4 8 8 9 9 9 10 9 9 8 7 6 5 5 4 3 3 4 4 4 3 2 1 1 0 0 0 1
4 2 4 5 2 4 6 7 7 6 5 1 2 3 6 4 6 6 8 8 8 9 9 8 7 6 6 5 5 5 4 3 3 4 4 4 4 4 3 2 1 1 0 0
2 2 2 3 4 3 5 7 5 5 4 4 1 2 8 7 6 6 8 9 8 8 9 9 9 8 7 7 7 6 5 4 4 4 4 5 5 4 4 3 2 1 1 0
4 4 4 3 6 6 5 9 8 5 5 4 1 4 8 5 4 3 4 5 6 7 8 9 10 10 9 9 8 7 6 5 5 5 4 4 4 3 2 3 2 2 1 1
7 6 3 2 3 9 6 4 6 8 3 0 4 6 8 3 2 0 2 3 5 7 8 9 8 9 9 9 8 8 8 6 5 5 5 4 4 3 3 3 2 1 1 1
8 3 3 2 5 4 5 9 6 7 6 2 4 4 5 5 5 3 3 4 5 5 7 7 7 8 8 8 7 6 7 7 6 5 5 4 4 4 4 3 3 2 2 1
5 5 1 2 3 5 4 4 6 5 5 7 3 7 6 7 7 6 6 5 5 6 6 6 6 7 7 6 6 6 6 5 5 5 5 4 4 4 4 3 3 2 2 2
4 6 2 4 2 2 4 7 8 7 4 4 4 8 4 4 5 5 4 3 3 4 4 4 4 4 5 6 6 6 6 6 6 5 5 5 4 4 4 3 3 3 3 3
6 7 3 4 4 2 2 3 4 6 6 5 5 7 3 1 0 2 3 3 3 3 3 3 3 3 4 5 5 6 6 6 5 6 6 5 5 5 5 4 3 3 3 3
7 6 7 9 7 3 2 2 4 6 5 5 7 6 4 2 1 1 1 3 3 4 4 4 3 3 3 3 4 5 5 5 6 6 6 6 6 6 5 4 4 3 3 3
6 5 2 2 2 3 3 3 5 4 7 8 7 6 6 4 3 1 1 3 3 2 2 4 4 3 3 2 3 3 4 5 5 6 6 6 5 5 5 4 4 3 3 3
5 5 2 1 0 2 2 1 3 2 3 3 2 3 3 1 2 3 2 3 3 2 2 3 3 3 3 4 3 3 4 4 4 6 6 5 5 5 5 5 4 4 3 3
3 5 4 1 1 3 1 2 2 2 1 4 6 5 1 2 2 2 2 2 2 1 1 2 2 3 4 4 4 5 5 4 4 5 5 6 6 6 6 6 5 5 4 3
6 5 4 3 3 3 5 2 3 4 0 1 1 2 3 4 2 2 2 2 1 1 0 0 1 2 2 2 2 3 3 4 4 4 5 5 6 6 6 5 5 5 4 4
4 7 5 4 3 1 3 1 1 2 1 1 2 2 2 2 3 3 1 1 1 1 1 1 1 2 2 2 2 3 3 3 4 4 4 4 5 5 6 6 6 5 4 4
5 5 6 4 5 6 6 3 1 3 1 2 1 2 2 3 2 2 2 1 2 1 1 1 1 2 2 2 3 3 2 3 3 4 3 3 4 5 6 6 5 4 4 4
4 4 4 4 3 4 4 4 1 3 5 2 1 2 2 1 3 2 1 1 1 1 1 1 2 2 1 2 3 3 2 3 3 3 3 2 3 4 5 4 4 3 3 3
3 4 3 4 3 5 3 1 3 4 1 1 1 1 2 2 1 0 1 1 1 2 2 2 2 1 1 2 3 2 2 2 2 2 2 2 3 3 3 4 3 3 4 4
2 3 4 4 4 3 2 1 1 2 1 0 1 1 3 3 1 1 0 0 0 0 1 1 1 1 1 0 2 2 2 1 2 2 2 2 2 2 3 4 4 3 3 3
1 1 3 1 2 2 2 1 1 1 1 1 2 2 2 2 1 1 0 1 1 1 1 0 1 1 2 1 1 2 1 1 2 3 2 2 2 2 2 3 3 4 4 4
1 1 2 0 2 2 3 1 0 1 2 2 1 1 2 2 0 0 1 1 1 1 1 0 0 1 2 2 2 2 2 2 3 3 3 2 3 3 3 3 3 4 4 5
2 4 4 5 5 3 3 3 1 1 1 1 1 1 1 1 0 1 1 2 2 2 2 1 1 2 2 2 3 3 2 3 4 3 3 2 2 2 3 3 1 1 1 2
Wind_Direction
41 73 157 213 196 183 163 161 191 234 172 144 182 204 192 180 180 187 192 194 196 206 205 188 182 167 157 157 156 163 161 162 144 126 128 119 120 4 18 331 285 162 165 159
43 282 229 194 161 136 141 141 186 352 118 139 162 235 200 186 194 196 196 199 201 201 191 186 181 173 169 172 174 177 181 175 171 156 145 145 137 133 137 355 28 123 154 159
179 230 180 133 119 127 148 172 190 166 100 66 93 343 271 231 196 201 202 200 200 199 197 191 185 185 177 183 187 190 191 186 180 161 125 103 83 58 49 24 355 343 162 168
215 235 151 123 167 151 229 211 168 138 115 39 94 278 288 238 216 215 213 204 205 204 194 191 188 187 191 196 187 182 183 184 176 161 157 160 162 177 202 191 241 315 174 168
226 185 153 182 211 160 179 95 100 106 111 72 42 131 289 297 238 233 221 213 209 202 193 193 192 192 194 190 181 178 172 183 178 168 171 166 171 180 165 140 184 307 324 190
227 216 185 191 157 132 117 74 58 52 68 35 244 155 278 240 229 231 217 213 206 197 192 191 186 179 184 183 179 172 172 191 182 174 175 175 179 178 169 180 201 238 298 309
304 284 237 149 101 68 95 90 47 15 15 253 251 175 250 254 238 218 209 207 199 188 185 182 180 183 185 184 185 178 177 195 190 183 187 186 186 181 186 195 200 198 194 217
175 259 234 182 165 165 161 136 153 180 209 263 312 232 253 268 270 239 201 188 179 179 184 188 189 189 190 193 190 184 185 196 191 189 193 184 180 181 192 196 192 193 200 208
170 233 276 214 164 138 136 151 151 127 137 141 277 281 298 291 310 285 167 160 185 189 187 191 190 188 190 192 191 188 187 194 192 192 185 176 173 179 188 188 179 178 190 184
153 193 274 286 82 45 132 140 107 118 142 213 280 271 251 256 246 230 201 195 198 186 186 191 192 190 190 191 189 185 187 195 193 189 192 184 174 182 186 177 179 181 182 165
138 150 302 49 149 172 106 100 108 116 149 156 215 263 230 220 218 207 212 202 190 185 185 190 193 187 180 175 176 182 188 187 184 186 185 178 174 173 170 174 185 182 176 168
134 125 184 254 266 181 154 159 147 149 190 169 170 259 274 219 216 202 210 197 182 172 170 173 172 165 171 178 181 185 191 190 188 181 179 181 174 167 171 179 185 177 173 173
132 115 105 344 339 12 105 136 139 123 117 147 166 257 307 343 217 194 183 176 164 152 141 138 136 159 180 181 182 187 191 195 191 178 177 178 178 177 183 186 182 175 175 171
115 110 157 189 206 190 170 149 145 123 136 178 213 239 296 312 296 282 162 165 158 154 151 149 156 174 181 180 183 189 193 190 183 178 175 184 191 190 188 183 178 176 177 172
101 121 154 191 174 153 169 164 161 163 172 175 212 212 250 248 236 221 133 126 120 131 149 165 173 179 178 182 185 193 196 189 181 178 185 196 194 188 178 177 179 177 180 183
75 119 113 71 92 139 113 83 162 170 163 180 162 245 268 254 99 85 92 102 107 133 178 173 167 168 180 193 194 191 200 197 180 184 195 192 187 187 182 185 181 175 179 184
81 113 107 186 299 71 334 288 171 155 203 170 190 219 169 111 122 149 133 114 129 160 168 166 182 187 195 204 194 193 198 180 177 193 191 188 187 190 192 188 178 186 193 191
124 102 111 118 93 181 248 280 143 129 86 154 174 180 165 161 161 141 142 153 161 141 147 180 191 199 211 206 200 184 163 161 174 190 195 192 189 191 188 182 187 194 193 192
134 128 114 116 131 239 284 276 165 135 344 357 153 143 133 110 67 20 354 116 167 182 193 197 207 193 165 173 166 142 156 158 170 196 202 200 193 192 188 191 196 197 192 198
61 88 110 121 137 206 232 278 286 112 297 292 158 145 121 88 81 281 321 7 14 10 29 61 97 102 108 128 133 129 150 162 194 209 210 205 194 195 200 202 197 194 188 197
52 55 100 133 161 245 261 295 64 152 231 270 169 155 126 145 200 231 331 3 8 3 10 36 68 84 102 124 124 135 152 201 217 203 189 187 189 200 204 200 192 182 175 178
143 129 150 136 153 238 305 58 148 207 229 124 102 118 121 139 135 119 62 38 28 23 23 32 53 42 49 128 139 159 206 221 186 174 181 189 196 201 199 187 185 178 175 183
137 177 173 174 199 259 299 190 207 167 133 105 129 149 132 125 140 187 199 130 78 54 7 24 74 21 345 164 151 197 239 187 160 172 194 199 203 198 186 187 186 179 183 193
3 93 106 78 302 305 327 3 17 81 131 134 133 137 134 144 196 223 276 337 350 0 331 15 75 35 316 298 218 226 229 178 183 194 214 214 192 188 191 203 189 184 192 202
228 92 90 81 275 332 343 350 27 65 67 60 50 94 116 120 234 282 310 309 309 312 317 332 201 240 272 286 282 252 218 186 196 207 206 202 193 188 195 202 198 199 208 207
219 175 166 210 222 197 256 276 248 92 326 304 2 7 26 108 123 350 305 298 297 298 294 286 277 268 270 271 273 263 224 197 195 207 211 210 204 198 194 191 199 200 199 193